Theta_e
314 318 319 319 317 317 317 317 318 317 316 315 316 315 315 314 313 314 316 317 319 319 319 320 319 319 318 319 320 321 322 320 319 319 317 316 317 320 325 326 322 335 330 334
317 318 318 315 315 316 317 318 319 316 315 315 316 315 314 314 314 314 315 319 319 319 319 319 319 318 318 317 316 316 317 321 322 318 318 322 319 320 320 322 322 328 330 330
317 318 315 316 317 318 317 318 317 315 316 315 314 314 313 314 314 315 318 319 319 319 318 317 317 316 316 315 315 315 312 312 318 323 317 322 328 319 325 322 321 322 329 325
316 315 316 318 317 316 318 315 315 316 317 315 313 313 314 315 317 317 318 319 319 318 316 316 315 315 314 315 313 313 314 312 310 315 323 319 333 336 329 328 321 321 322 325
318 317 318 318 316 315 317 314 316 316 315 314 314 315 315 314 316 316 318 319 319 318 317 316 316 315 313 313 313 312 312 312 312 310 315 321 326 333 336 337 326 323 328 324
316 315 316 316 315 314 314 316 316 312 314 316 315 317 316 315 315 317 319 319 319 318 317 315 314 313 313 313 313 313 312 309 307 310 309 316 321 324 331 331 329 324 326 328
317 317 316 316 317 315 316 317 319 316 318 314 316 316 315 315 315 316 316 317 319 318 315 314 313 313 313 312 312 312 312 311 309 307 308 310 319 321 324 324 331 336 328 330
318 316 317 316 316 317 317 316 318 319 315 314 314 315 315 317 316 316 317 318 317 317 315 314 313 312 312 313 312 312 312 311 310 307 310 308 314 320 322 325 325 324 328 325
319 318 316 316 315 316 315 317 314 319 315 317 315 316 316 316 316 316 317 314 315 315 314 313 313 313 312 311 310 308 307 307 307 309 311 310 309 319 321 323 326 325 322 325
317 319 315 315 315 314 315 315 318 318 320 318 315 316 316 315 315 315 315 314 315 314 314 313 313 312 311 310 308 306 307 309 309 310 311 311 310 317 320 322 326 326 324 324
316 318 315 315 315 314 315 316 316 316 319 320 317 315 315 315 315 315 315 314 314 314 313 313 312 311 309 308 308 308 308 308 309 311 310 309 312 318 320 325 327 328 328 329
315 317 317 315 314 314 314 316 317 321 317 317 319 319 315 316 315 314 315 314 314 313 313 312 311 309 307 307 307 307 307 307 308 309 310 309 312 318 321 326 329 328 331 332
315 319 318 314 312 313 315 315 315 316 316 318 320 318 316 315 316 315 314 313 313 312 312 310 308 307 307 307 307 307 307 307 308 308 310 309 312 315 321 325 328 329 331 330
315 317 317 316 314 314 315 315 314 316 318 318 319 317 316 316 316 315 313 312 311 310 310 308 306 306 306 306 306 306 306 306 306 308 309 309 311 314 321 324 327 329 328 327
317 317 315 314 314 314 315 315 315 316 316 317 317 316 316 316 315 313 311 311 310 310 308 306 306 306 306 306 306 305 305 305 306 307 309 310 311 314 319 324 322 326 328 326
312 314 314 314 314 315 316 316 316 316 316 316 315 315 314 313 312 312 311 309 309 308 307 306 305 305 304 304 304 303 303 303 305 306 309 310 310 313 319 323 322 322 323 321
312 313 315 316 314 314 314 314 314 313 314 315 314 314 313 313 311 310 308 307 307 306 305 305 304 303 303 303 302 302 303 302 304 306 308 310 310 312 318 321 321 323 323 322
312 313 314 316 313 312 311 310 311 313 312 312 312 312 311 310 310 309 307 306 306 304 303 303 302 302 302 301 302 301 301 302 305 306 307 309 310 312 318 320 319 320 323 324
311 311 311 312 312 309 309 313 312 311 311 312 312 310 310 310 309 307 306 306 304 303 302 302 301 301 300 300 300 301 303 304 307 307 307 309 310 312 319 324 321 322 323 323
310 309 311 310 311 310 309 312 309 309 313 311 309 309 309 309 309 309 305 304 303 302 301 301 300 300 300 300 301 301 303 303 306 306 308 310 310 312 320 324 323 323 323 323
309 310 310 310 311 310 310 309 308 312 314 308 308 308 308 309 307 305 303 302 302 301 301 300 299 299 300 300 300 302 304 305 308 309 309 310 310 311 321 322 322 323 323 323
310 311 311 311 312 311 308 309 310 310 306 307 308 307 307 305 303 302 302 301 301 300 299 299 299 299 299 300 301 303 304 308 309 311 310 309 310 310 318 319 320 320 321 319
311 310 312 311 311 310 309 308 307 308 308 308 308 304 303 302 302 302 301 301 299 299 299 298 298 298 300 302 302 303 306 307 309 310 310 310 310 311 318 319 319 320 319 320
308 307 310 309 310 309 308 308 308 308 308 306 303 302 302 301 301 301 299 298 299 299 298 298 298 299 301 303 303 304 306 308 309 310 309 309 309 316 318 318 319 319 319 318
309 308 310 309 309 308 308 308 308 307 305 303 302 301 301 301 299 298 298 298 298 298 299 299 299 300 301 302 303 306 307 307 308 307 307 309 312 316 317 317 317 319 319 319
309 309 308 309 308 308 308 308 307 304 303 301 301 301 300 299 298 297 297 298 298 298 299 300 300 301 303 304 305 307 307 307 307 307 309 313 315 317 317 316 314 314 318 318
Wind_Speed
3 2 2 0 3 3 5 5 8 8 6 10 15 17 19 25 22 21 13 6 3 3 7 9 10 13 16 18 18 19 13 15 23 27 32 34 32 35 33 34 30 31 25 23
2 6 4 4 4 5 5 6 10 7 7 11 18 23 18 16 14 8 6 4 3 2 3 6 10 13 16 20 23 27 27 25 13 20 26 27 26 32 34 35 36 35 32 28
6 5 2 4 4 5 4 6 3 8 13 13 12 16 2 2 6 5 3 3 2 1 4 8 11 13 16 19 22 24 29 31 28 20 18 25 26 30 36 40 37 34 37 29
5 3 2 3 3 2 7 3 6 11 13 12 4 9 3 4 7 7 4 5 3 2 3 6 12 17 20 22 24 23 23 29 31 27 21 14 20 24 29 37 39 40 36 31
2 4 4 4 1 3 4 5 9 12 13 5 5 6 0 3 8 7 7 6 6 4 5 9 12 15 18 20 24 29 31 29 30 30 23 20 14 21 23 25 33 38 40 34
2 4 1 2 2 1 3 6 11 1 2 5 4 2 5 4 4 5 4 6 7 7 7 8 11 16 19 22 26 29 33 39 37 32 27 20 18 16 21 27 29 34 37 40
8 2 0 1 3 3 3 8 5 3 2 5 6 7 11 12 12 14 13 12 9 10 10 11 14 18 23 27 30 34 39 41 42 37 32 23 20 18 17 23 27 26 34 37
3 4 3 0 11 9 3 2 2 6 5 13 12 9 4 4 5 5 6 6 10 14 13 13 15 20 24 30 32 38 41 46 45 43 35 26 20 21 20 19 24 32 32 34
4 5 5 14 5 3 4 5 2 5 4 5 5 6 10 15 12 9 12 10 10 11 15 17 19 22 26 27 33 38 41 42 41 40 36 28 21 19 20 20 21 26 35 34
2 9 7 3 2 3 6 7 3 2 4 7 10 13 12 9 9 10 14 18 7 16 12 14 19 22 26 29 35 37 36 36 36 33 33 28 23 18 20 20 21 23 29 30
3 3 3 3 7 12 5 4 4 4 5 5 11 9 4 10 13 14 16 11 18 15 13 18 23 27 29 29 30 30 30 31 29 27 27 24 21 18 20 21 19 22 22 25
0 3 9 18 21 10 10 14 14 6 8 7 12 18 13 14 10 12 18 23 16 14 18 22 27 29 29 29 30 27 27 26 24 25 26 22 20 17 19 18 17 21 23 28
2 2 6 7 3 3 3 4 12 11 6 17 15 13 4 9 18 23 15 15 18 23 28 29 32 31 30 28 27 26 25 25 24 23 24 22 20 17 15 16 15 17 22 22
7 7 11 11 18 18 22 21 20 15 7 17 20 27 24 22 21 20 15 17 22 28 29 33 32 33 31 29 27 27 28 27 24 22 23 21 18 15 11 14 15 18 19 20
2 8 12 17 21 22 22 24 24 19 23 16 26 25 24 21 11 15 17 22 29 30 33 31 32 33 31 31 31 31 30 25 22 23 22 21 17 14 9 12 15 17 22 24
4 9 14 20 16 14 15 19 21 20 20 16 18 22 8 12 15 23 24 31 35 35 33 33 34 33 34 33 31 34 30 25 22 22 21 19 17 12 8 8 16 16 22 23
7 4 4 12 9 17 14 6 8 13 11 8 7 17 13 14 22 25 32 36 33 33 33 38 38 35 37 37 37 34 28 26 23 22 19 18 16 12 9 8 11 15 19 18
4 3 2 8 13 11 6 16 10 8 11 14 20 15 11 24 27 29 32 27 30 38 40 37 35 37 37 37 39 31 26 24 23 22 19 16 14 12 10 8 9 12 15 19
5 2 5 4 10 18 11 1 2 3 18 16 3 13 31 26 30 27 24 30 41 38 37 36 41 38 40 36 33 28 25 22 22 21 17 14 13 12 10 8 10 10 14 19
3 5 5 5 5 8 7 1 13 20 15 5 20 24 29 22 17 20 41 43 38 35 37 38 39 40 36 34 29 26 23 20 21 19 14 12 13 12 9 9 10 10 12 17
10 7 7 7 7 10 7 3 27 8 6 31 34 28 30 15 23 49 48 42 38 39 38 36 36 38 36 32 25 24 21 20 18 17 13 10 13 12 8 13 10 12 16 17
6 4 3 4 5 6 3 19 2 12 33 33 30 31 31 36 42 41 43 44 43 44 43 39 38 34 32 27 21 22 20 15 14 13 12 10 14 13 11 14 11 14 17 16
4 6 4 5 7 26 32 21 31 28 32 31 26 34 39 38 40 41 41 38 41 40 39 39 33 32 27 21 18 21 18 14 14 16 15 12 14 14 14 14 13 17 15 16
4 6 5 8 8 16 27 30 27 34 33 31 34 36 35 38 39 40 39 39 39 39 39 36 33 30 27 21 18 18 17 16 18 21 21 18 18 15 16 13 13 20 22 23
10 6 7 12 21 24 18 28 33 36 30 34 33 33 37 33 40 37 38 39 40 40 38 35 32 30 27 20 17 14 15 16 17 21 18 20 20 20 19 17 20 23 25 20
5 4 2 3 21 19 27 34 32 29 32 33 34 37 35 36 37 36 37 37 37 39 39 35 32 28 24 17 13 11 14 16 15 18 22 26 25 23 20 22 26 25 26 24
Wind_Direction
30 316 359 289 203 211 226 237 271 295 303 320 301 297 296 296 289 283 287 245 359 333 20 37 37 30 26 24 22 19 352 286 261 262 254 248 244 236 241 248 249 251 251 251
236 286 212 185 210 231 231 275 301 288 297 313 305 297 302 288 273 290 282 225 308 335 9 33 32 24 22 19 19 23 23 18 345 258 253 244 248 236 234 243 243 247 247 249
250 287 147 239 238 246 250 269 260 297 317 287 288 289 258 272 267 238 218 219 212 299 351 353 1 11 10 8 9 9 13 16 14 358 259 244 245 246 235 238 246 248 249 249
258 342 286 293 255 212 282 198 286 288 312 307 356 298 261 265 264 276 218 211 226 241 337 356 357 351 355 353 353 354 354 358 4 6 0 271 251 246 245 239 246 249 251 246
301 341 330 296 103 199 306 311 294 293 287 278 202 253 129 285 268 284 236 252 241 246 295 323 335 337 342 346 344 345 347 341 342 350 354 349 297 259 253 247 249 249 245 241
295 297 266 101 71 100 328 301 291 170 238 246 141 246 266 249 261 265 239 241 257 248 270 298 313 325 328 332 330 331 335 339 334 328 334 334 328 321 259 249 247 248 250 244
322 21 23 98 340 298 317 329 316 282 245 292 163 287 271 281 269 268 277 276 269 262 271 292 314 323 324 326 327 329 326 323 331 323 316 318 318 308 305 263 247 242 245 249
332 304 343 170 329 295 290 259 264 291 292 297 273 250 241 242 272 283 257 260 275 263 275 291 307 315 321 326 328 327 320 318 319 319 310 301 299 305 297 288 255 246 239 243
299 249 293 296 303 219 155 220 349 271 267 268 240 256 271 272 260 248 243 299 285 288 279 286 302 314 321 322 324 323 320 316 314 311 307 293 285 287 287 288 269 249 244 239
307 297 271 284 255 204 246 152 212 213 270 261 268 268 270 282 261 290 299 309 301 323 304 296 309 314 319 319 321 318 317 315 311 307 304 288 278 275 279 276 270 255 248 237
287 222 274 279 244 277 230 219 210 275 232 264 290 273 224 287 295 296 308 314 321 320 316 313 317 319 320 318 319 317 315 312 309 306 301 285 271 266 272 271 253 248 235 222
20 242 275 273 276 292 259 262 251 236 238 233 275 276 290 281 286 322 308 308 315 315 314 316 318 319 317 315 315 312 310 310 306 305 304 284 274 266 262 262 252 230 212 211
184 254 303 286 189 141 227 223 239 251 274 259 266 269 251 271 296 318 323 316 317 317 318 318 318 319 317 313 311 307 307 306 303 302 301 281 276 278 265 251 231 224 219 220
251 236 232 264 288 295 288 279 266 253 258 268 261 276 288 295 301 319 314 317 315 314 314 315 315 315 313 311 311 307 304 304 301 297 296 279 274 282 274 244 227 210 211 225
255 264 272 277 282 284 280 280 282 266 262 259 278 287 292 308 322 320 317 314 312 306 309 309 310 310 307 304 305 304 302 299 297 295 293 279 268 274 275 241 225 222 220 226
336 284 300 296 285 286 287 279 276 281 280 269 274 284 321 316 311 317 320 318 310 308 308 308 308 305 303 302 303 306 301 297 296 293 290 282 269 265 260 234 219 222 225 230
274 288 295 290 312 306 285 329 322 306 300 310 285 302 320 318 319 319 318 311 307 308 306 306 304 302 302 301 303 301 295 296 291 291 288 283 268 259 245 235 232 228 226 226
243 237 264 295 312 291 1 316 309 309 289 299 292 306 320 310 298 309 309 303 307 307 303 300 299 300 299 300 301 298 294 290 287 287 285 280 263 254 240 233 252 231 217 215
198 19 309 279 305 291 288 45 13 321 303 300 348 326 316 302 298 300 310 309 307 303 300 299 301 297 297 295 297 297 298 290 284 283 279 277 253 248 239 236 253 237 221 203
229 271 262 288 275 297 322 161 342 321 294 80 327 317 308 314 305 306 317 314 306 305 302 302 300 299 295 293 295 295 292 287 282 278 275 273 241 238 225 242 252 223 211 204
312 311 276 263 276 276 323 276 334 285 330 322 311 309 307 302 298 302 309 310 308 306 304 303 300 297 295 295 294 289 287 282 281 280 266 268 233 228 216 239 243 220 204 188
293 298 274 265 260 277 14 328 290 297 301 301 299 301 310 305 304 305 308 309 310 311 314 311 306 300 296 295 290 284 280 274 273 262 245 257 235 217 221 230 224 209 195 193
262 233 287 230 269 295 304 305 303 305 298 300 310 316 313 308 307 306 306 307 308 309 308 311 309 308 303 295 286 279 268 264 247 239 242 249 223 212 222 219 214 187 180 175
270 266 238 276 271 290 310 308 311 310 311 314 316 312 308 304 308 306 308 309 309 311 314 317 314 308 303 297 288 273 265 250 238 228 235 233 207 202 208 210 204 192 174 151
286 280 253 268 290 312 303 310 313 319 316 316 313 313 313 304 311 311 310 311 314 317 320 320 313 309 304 298 277 261 242 234 228 224 210 195 188 197 191 191 184 185 174 156
250 288 278 287 304 300 304 317 324 320 319 321 317 316 317 316 316 317 314 318 321 320 321 318 318 312 305 295 263 236 228 209 194 179 168 175 185 187 185 180 172 175 176 183